Regional Weather Roundup
Issued by NWS Jackson, KY

Home | Current Version | Previous Version | Graphics & Text | Print | Product List | Glossary On
Versions: 1 2 3 4 5 6 7 8 9 10 11 12 13 14 15 16 17 18 19 20 21 22 23 24 25 26 27 28 29 30 31 32 33 34 35 36 37 38 39 40 41 42 43 44 45 46 47 48 49 50
000
ASUS43 KJKL 230810
RWRJKL

EAST KENTUCKY HOURLY WEATHER ROUNDUP
NATIONAL WEATHER SERVICE JACKSON KY
400 AM EDT TUE SEP 23 2014

NOTE: "FAIR" INDICATES FEW OR NO CLOUDS BELOW 12,000 FEET WITH
NO SIGNIFICANT WEATHER AND/OR OBSTRUCTIONS TO VISIBILITY.

* THESE REPORTS ARE NOT UNDER NWS QUALITY CONTROL AND MAY NOT
  REPORT WEATHER SUCH AS PRECIPITATION AND FOG.

KYZ079-080-083-085-087-088-110-112-115-119-120-230900
...EASTERN KENTUCKY...

CITY           SKY/WX    TMP DP  RH WIND       PRES   REMARKS
JACKSON        CLEAR     50  44  80 CALM      30.26S
LONDON         CLEAR     49  45  86 CALM      30.26S
SOMERSET*      CLEAR     45  45 100 CALM      30.27S
MONTICELLO*    CLEAR     43  43 100 CALM      30.27S
WILLIAMSBURG*  CLEAR     45  45 100 CALM      30.26R
MIDDLESBORO*   CLOUDY    47  47 100 CALM      30.26S
HARLAN APT*    CLOUDY    46  46 100 MISG      30.25S VSB 1/4
HAZARD APT*    FOG       46  46 100 CALM      30.27R VSB 1/4
BLACK MTN*       N/A     45  43  93 NE2         N/A
PIKEVILLE APT* CLEAR     48  46  93 CALM      30.26S
BIG SANDY*     FOG       45  45 100 CALM      30.26S VSB 3/4
MOREHEAD APT*  SUNNY     48  43  81 E3        30.29F
$$

KYZ035-036-041-042-044-050-067-078-099-230900
...CENTRAL KENTUCKY...

CITY           SKY/WX    TMP DP  RH WIND       PRES   REMARKS
MT STERLING*   CLEAR     41  41 100 CALM      30.29S
FLEMING/MASON* CLEAR     45  43  93 CALM      30.29F
DANVILLE*      CLEAR     43  43 100 CALM      30.27F
RICHMOND*      CLEAR     43  41  93 CALM      30.26S
LEXINGTON      CLEAR     48  42  80 NE6       30.27F
FRANKFORT      CLEAR     44  41  89 CALM      30.27S
$$

KYZ091>093-OHZ055-061-077-WVZ005-015-034-035-042-230900
...SOUTHERN OHIO/WEST VIRGINIA...

CITY           SKY/WX    TMP DP  RH WIND       PRES   REMARKS
COVINGTON      CLEAR     49  42  77 CALM      30.28F
COLUMBUS       CLEAR     47  40  76 CALM      30.29S
DAYTON         CLEAR     47  42  83 CALM      30.30S
WILMINGTON     CLEAR     40  38  93 CALM      30.29S
HUNTINGTON     CLEAR     47  46  97 CALM      30.27F
CHARLESTON     FOG       48  48 100 CALM      30.27F VSB 1/4
PINEVILLE*     FOG       47  47 100 MISG      30.32S VSB 1/2
BECKLEY        CLEAR     43  40  89 CALM      30.27S
BLUEFIELD      PTCLDY    47  43  86 CALM      30.27F
$$

VAZ002-007-008-TNZ017-027-036-066-071-230900
...SOUTHWEST VIRGINIA/EAST TENNESSEE...

CITY           SKY/WX    TMP DP  RH WIND       PRES   REMARKS
WISE*          CLEAR     46  45  93 CALM      30.27S
JONESVILLE*    SUNNY     45  45 100 CALM      30.27S
ABINGDON*      CLEAR     47  45  92 E5        30.25F
BRISTOL        CLEAR     48  44  86 CALM      30.24F
KNOXVILLE      CLEAR     53  49  86 NE8       30.20F
OAK RIDGE      CLEAR     53  49  86 CALM      30.24S
CROSSVILLE     CLEAR     49  45  86 NE5       30.23S
NASHVILLE      CLEAR     52  46  80 CALM      30.24S
$$

...KEY TO REMARKS...
VSB - VISIBILITY IN MILES
WCI - WIND CHILL INDEX
HX  - HEAT INDEX

$$



USA.gov is the U.S. government's official web portal to all federal, state and local government web resources and services.